owner,sensor,date,latitude,longitude,air_temperature,qcFlag 
DISL,ioos:station:DISL:MHPA:1,2012-07-01T00:00:00Z,30.6671,-87.9365,30.09,1111122 
DISL,ioos:station:DISL:MHPA:1,2012-07-01T00:30:00Z,30.6671,-87.9365,29.89,1111122 
DISL,ioos:station:DISL:MHPA:1,2012-07-01T01:00:00Z,30.6671,-87.9365,29.71,1111122 
DISL,ioos:station:DISL:MHPA:1,2012-07-01T01:30:00Z,30.6671,-87.9365,29.35,1111122 
DISL,ioos:station:DISL:MHPA:1,2012-07-01T02:00:00Z,30.6671,-87.9365,29.32,1111122 
DISL,ioos:station:DISL:MHPA:1,2012-07-01T02:30:00Z,30.6671,-87.9365,29.25,1111122 
DISL,ioos:station:DISL:MHPA:1,2012-07-01T03:00:00Z,30.6671,-87.9365,29.19,1111122 
DISL,ioos:station:DISL:MHPA:1,2012-07-01T03:30:00Z,30.6671,-87.9365,29.11,1111122 
DISL,ioos:station:DISL:MHPA:1,2012-07-01T04:00:00Z,30.6671,-87.9365,28.94,1111122 
DISL,ioos:station:DISL:MHPA:1,2012-07-01T04:30:00Z,30.6671,-87.9365,28.84,1111122 
DISL,ioos:station:DISL:MHPA:1,2012-07-01T05:00:00Z,30.6671,-87.9365,28.8,1111122 
DISL,ioos:station:DISL:MHPA:1,2012-07-01T05:30:00Z,30.6671,-87.9365,28.75,1111122 
DISL,ioos:station:DISL:MHPA:1,2012-07-01T06:00:00Z,30.6671,-87.9365,28.55,1111122 
DISL,ioos:station:DISL:MHPA:1,2012-07-01T06:30:00Z,30.6671,-87.9365,28.49,1111122 
DISL,ioos:station:DISL:MHPA:1,2012-07-01T07:00:00Z,30.6671,-87.9365,28.5,1111122 
DISL,ioos:station:DISL:MHPA:1,2012-07-01T07:30:00Z,30.6671,-87.9365,28.36,1111122 
DISL,ioos:station:DISL:MHPA:1,2012-07-01T08:00:00Z,30.6671,-87.9365,28.36,1111122 
DISL,ioos:station:DISL:MHPA:1,2012-07-01T08:30:00Z,30.6671,-87.9365,28.06,1111122 
DISL,ioos:station:DISL:MHPA:1,2012-07-01T09:00:00Z,30.6671,-87.9365,28.02,1111122 
DISL,ioos:station:DISL:MHPA:1,2012-07-01T09:30:00Z,30.6671,-87.9365,27.66,1111122 
DISL,ioos:station:DISL:MHPA:1,2012-07-01T10:00:00Z,30.6671,-87.9365,27.06,1111122 
DISL,ioos:station:DISL:MHPA:1,2012-07-01T10:30:00Z,30.6671,-87.9365,26.84,1111122 
DISL,ioos:station:DISL:MHPA:1,2012-07-01T11:00:00Z,30.6671,-87.9365,27.0,1111122 
DISL,ioos:station:DISL:MHPA:1,2012-07-01T11:30:00Z,30.6671,-87.9365,26.92,1111122 
DISL,ioos:station:DISL:MHPA:1,2012-07-01T12:00:00Z,30.6671,-87.9365,27.18,1111122 
DISL,ioos:station:DISL:MHPA:1,2012-07-01T12:30:00Z,30.6671,-87.9365,27.7,1111122 
DISL,ioos:station:DISL:MHPA:1,2012-07-01T13:00:00Z,30.6671,-87.9365,27.98,1111122 
DISL,ioos:station:DISL:MHPA:1,2012-07-01T13:30:00Z,30.6671,-87.9365,28.42,1111122 
DISL,ioos:station:DISL:MHPA:1,2012-07-01T14:00:00Z,30.6671,-87.9365,29.0,1111122 
DISL,ioos:station:DISL:MHPA:1,2012-07-01T14:30:00Z,30.6671,-87.9365,29.24,1111122 
DISL,ioos:station:DISL:MHPA:1,2012-07-01T15:00:00Z,30.6671,-87.9365,29.62,1111122 
DISL,ioos:station:DISL:MHPA:1,2012-07-01T15:30:00Z,30.6671,-87.9365,29.96,1111122 
DISL,ioos:station:DISL:MHPA:1,2012-07-01T16:00:00Z,30.6671,-87.9365,30.25,1111122 
DISL,ioos:station:DISL:MHPA:1,2012-07-01T16:30:00Z,30.6671,-87.9365,30.42,1111122 
DISL,ioos:station:DISL:MHPA:1,2012-07-01T17:00:00Z,30.6671,-87.9365,30.83,1111122 
DISL,ioos:station:DISL:MHPA:1,2012-07-01T17:30:00Z,30.6671,-87.9365,30.9,1111122 
DISL,ioos:station:DISL:MHPA:1,2012-07-01T18:00:00Z,30.6671,-87.9365,31.41,1111122 
DISL,ioos:station:DISL:MHPA:1,2012-07-01T18:30:00Z,30.6671,-87.9365,31.84,1111122 
DISL,ioos:station:DISL:MHPA:1,2012-07-01T19:00:00Z,30.6671,-87.9365,32.12,1111122 
DISL,ioos:station:DISL:MHPA:1,2012-07-01T19:30:00Z,30.6671,-87.9365,32.4,1111122 
DISL,ioos:station:DISL:MHPA:1,2012-07-01T20:00:00Z,30.6671,-87.9365,32.3,1111122 
DISL,ioos:station:DISL:MHPA:1,2012-07-01T20:30:00Z,30.6671,-87.9365,31.81,1111122 
DISL,ioos:station:DISL:MHPA:1,2012-07-01T21:00:00Z,30.6671,-87.9365,31.9,1111122 
DISL,ioos:station:DISL:MHPA:1,2012-07-01T21:30:00Z,30.6671,-87.9365,31.43,1111122 
DISL,ioos:station:DISL:MHPA:1,2012-07-01T22:00:00Z,30.6671,-87.9365,31.44,1111122 
DISL,ioos:station:DISL:MHPA:1,2012-07-01T22:30:00Z,30.6671,-87.9365,31.43,1111122 
DISL,ioos:station:DISL:MHPA:1,2012-07-01T23:00:00Z,30.6671,-87.9365,31.6,1111122 
DISL,ioos:station:DISL:MHPA:1,2012-07-01T23:30:00Z,30.6671,-87.9365,31.42,1111122 
DISL,ioos:station:DISL:MHPA:1,2012-07-02T00:00:00Z,30.6671,-87.9365,31.16,1111122 
DISL,ioos:station:DISL:MHPA:1,2012-07-02T00:30:00Z,30.6671,-87.9365,30.69,1111122 
DISL,ioos:station:DISL:MHPA:1,2012-07-02T01:00:00Z,30.6671,-87.9365,30.33,1111122 
DISL,ioos:station:DISL:MHPA:1,2012-07-02T01:30:00Z,30.6671,-87.9365,30.02,1111122 
DISL,ioos:station:DISL:MHPA:1,2012-07-02T02:00:00Z,30.6671,-87.9365,29.95,1111122 
DISL,ioos:station:DISL:MHPA:1,2012-07-02T02:30:00Z,30.6671,-87.9365,29.75,1111122 
DISL,ioos:station:DISL:MHPA:1,2012-07-02T03:00:00Z,30.6671,-87.9365,29.59,1111122 
DISL,ioos:station:DISL:MHPA:1,2012-07-02T03:30:00Z,30.6671,-87.9365,29.51,1111122 
DISL,ioos:station:DISL:MHPA:1,2012-07-02T04:00:00Z,30.6671,-87.9365,29.41,1111122 
DISL,ioos:station:DISL:MHPA:1,2012-07-02T04:30:00Z,30.6671,-87.9365,29.27,1111122 
DISL,ioos:station:DISL:MHPA:1,2012-07-02T05:00:00Z,30.6671,-87.9365,29.25,1111122 
DISL,ioos:station:DISL:MHPA:1,2012-07-02T05:30:00Z,30.6671,-87.9365,29.06,1111122 
DISL,ioos:station:DISL:MHPA:1,2012-07-02T06:00:00Z,30.6671,-87.9365,28.85,1111122 
DISL,ioos:station:DISL:MHPA:1,2012-07-02T06:30:00Z,30.6671,-87.9365,28.66,1111122 
DISL,ioos:station:DISL:MHPA:1,2012-07-02T07:00:00Z,30.6671,-87.9365,28.85,1111122 
DISL,ioos:station:DISL:MHPA:1,2012-07-02T07:30:00Z,30.6671,-87.9365,28.82,1111122 
DISL,ioos:station:DISL:MHPA:1,2012-07-02T08:00:00Z,30.6671,-87.9365,28.85,1111122 
DISL,ioos:station:DISL:MHPA:1,2012-07-02T08:30:00Z,30.6671,-87.9365,28.74,1111122 
DISL,ioos:station:DISL:MHPA:1,2012-07-02T09:00:00Z,30.6671,-87.9365,28.28,1111122 
DISL,ioos:station:DISL:MHPA:1,2012-07-02T09:30:00Z,30.6671,-87.9365,28.08,1111122 
DISL,ioos:station:DISL:MHPA:1,2012-07-02T10:00:00Z,30.6671,-87.9365,27.78,1111122 
DISL,ioos:station:DISL:MHPA:1,2012-07-02T10:30:00Z,30.6671,-87.9365,27.4,1111122 
DISL,ioos:station:DISL:MHPA:1,2012-07-02T11:00:00Z,30.6671,-87.9365,27.41,1111122 
DISL,ioos:station:DISL:MHPA:1,2012-07-02T11:30:00Z,30.6671,-87.9365,27.07,1111122 
DISL,ioos:station:DISL:MHPA:1,2012-07-02T12:00:00Z,30.6671,-87.9365,27.0,1111122 
DISL,ioos:station:DISL:MHPA:1,2012-07-02T12:30:00Z,30.6671,-87.9365,26.89,1111122 
DISL,ioos:station:DISL:MHPA:1,2012-07-02T13:00:00Z,30.6671,-87.9365,26.42,1111122 
DISL,ioos:station:DISL:MHPA:1,2012-07-02T13:30:00Z,30.6671,-87.9365,26.47,1111122 
DISL,ioos:station:DISL:MHPA:1,2012-07-02T14:00:00Z,30.6671,-87.9365,26.61,1111122 
DISL,ioos:station:DISL:MHPA:1,2012-07-02T14:30:00Z,30.6671,-87.9365,27.43,1111122 
DISL,ioos:station:DISL:MHPA:1,2012-07-02T15:00:00Z,30.6671,-87.9365,29.19,1111122 
DISL,ioos:station:DISL:MHPA:1,2012-07-02T15:30:00Z,30.6671,-87.9365,28.72,1111122 
DISL,ioos:station:DISL:MHPA:1,2012-07-02T16:00:00Z,30.6671,-87.9365,29.41,1111122 
DISL,ioos:station:DISL:MHPA:1,2012-07-02T16:30:00Z,30.6671,-87.9365,29.24,1111122 
DISL,ioos:station:DISL:MHPA:1,2012-07-02T17:00:00Z,30.6671,-87.9365,30.07,1111122 
DISL,ioos:station:DISL:MHPA:1,2012-07-02T17:30:00Z,30.6671,-87.9365,30.99,1111122 
DISL,ioos:station:DISL:MHPA:1,2012-07-02T18:00:00Z,30.6671,-87.9365,31.1,1111122 
DISL,ioos:station:DISL:MHPA:1,2012-07-02T18:30:00Z,30.6671,-87.9365,30.91,1111122 
DISL,ioos:station:DISL:MHPA:1,2012-07-02T19:00:00Z,30.6671,-87.9365,31.6,1111122 
DISL,ioos:station:DISL:MHPA:1,2012-07-02T19:30:00Z,30.6671,-87.9365,32.92,1111122 
DISL,ioos:station:DISL:MHPA:1,2012-07-02T20:00:00Z,30.6671,-87.9365,32.66,1111122 
DISL,ioos:station:DISL:MHPA:1,2012-07-02T20:30:00Z,30.6671,-87.9365,32.81,1111122 
DISL,ioos:station:DISL:MHPA:1,2012-07-02T21:00:00Z,30.6671,-87.9365,28.59,1111122 
DISL,ioos:station:DISL:MHPA:1,2012-07-02T21:30:00Z,30.6671,-87.9365,26.7,1111122 
DISL,ioos:station:DISL:MHPA:1,2012-07-02T22:00:00Z,30.6671,-87.9365,27.21,1111122 
DISL,ioos:station:DISL:MHPA:1,2012-07-02T22:30:00Z,30.6671,-87.9365,27.24,1111122 
DISL,ioos:station:DISL:MHPA:1,2012-07-02T23:00:00Z,30.6671,-87.9365,27.37,1111122 
DISL,ioos:station:DISL:MHPA:1,2012-07-02T23:30:00Z,30.6671,-87.9365,27.36,1111122 
DISL,ioos:station:DISL:MHPA:1,2012-07-03T00:00:00Z,30.6671,-87.9365,27.23,1111122 
DISL,ioos:station:DISL:MHPA:1,2012-07-03T00:30:00Z,30.6671,-87.9365,27.31,1111122 
DISL,ioos:station:DISL:MHPA:1,2012-07-03T01:00:00Z,30.6671,-87.9365,27.11,1111122 
DISL,ioos:station:DISL:MHPA:1,2012-07-03T01:30:00Z,30.6671,-87.9365,26.93,1111122 
DISL,ioos:station:DISL:MHPA:1,2012-07-03T02:00:00Z,30.6671,-87.9365,26.79,1111122 
DISL,ioos:station:DISL:MHPA:1,2012-07-03T02:30:00Z,30.6671,-87.9365,26.66,1111122 
DISL,ioos:station:DISL:MHPA:1,2012-07-03T03:00:00Z,30.6671,-87.9365,26.56,1111122 
DISL,ioos:station:DISL:MHPA:1,2012-07-03T03:30:00Z,30.6671,-87.9365,26.59,1111122 
DISL,ioos:station:DISL:MHPA:1,2012-07-03T04:00:00Z,30.6671,-87.9365,26.63,1111122 
DISL,ioos:station:DISL:MHPA:1,2012-07-03T04:30:00Z,30.6671,-87.9365,26.24,1111122 
DISL,ioos:station:DISL:MHPA:1,2012-07-03T05:00:00Z,30.6671,-87.9365,26.32,1111122 
DISL,ioos:station:DISL:MHPA:1,2012-07-03T05:30:00Z,30.6671,-87.9365,26.2,1111122 
DISL,ioos:station:DISL:MHPA:1,2012-07-03T06:00:00Z,30.6671,-87.9365,26.2,1111122 
DISL,ioos:station:DISL:MHPA:1,2012-07-03T06:30:00Z,30.6671,-87.9365,26.27,1111122 
DISL,ioos:station:DISL:MHPA:1,2012-07-03T07:00:00Z,30.6671,-87.9365,26.16,1111122 
DISL,ioos:station:DISL:MHPA:1,2012-07-03T07:30:00Z,30.6671,-87.9365,25.81,1111122 
DISL,ioos:station:DISL:MHPA:1,2012-07-03T08:00:00Z,30.6671,-87.9365,25.75,1111122 
DISL,ioos:station:DISL:MHPA:1,2012-07-03T08:30:00Z,30.6671,-87.9365,25.75,1111122 
DISL,ioos:station:DISL:MHPA:1,2012-07-03T09:00:00Z,30.6671,-87.9365,25.66,1111122 
DISL,ioos:station:DISL:MHPA:1,2012-07-03T09:30:00Z,30.6671,-87.9365,25.59,1111122 
DISL,ioos:station:DISL:MHPA:1,2012-07-03T10:00:00Z,30.6671,-87.9365,25.66,1111122 
DISL,ioos:station:DISL:MHPA:1,2012-07-03T10:30:00Z,30.6671,-87.9365,25.62,1111122 
DISL,ioos:station:DISL:MHPA:1,2012-07-03T11:00:00Z,30.6671,-87.9365,25.68,1111122 
DISL,ioos:station:DISL:MHPA:1,2012-07-03T11:30:00Z,30.6671,-87.9365,25.72,1111122 
DISL,ioos:station:DISL:MHPA:1,2012-07-03T12:00:00Z,30.6671,-87.9365,26.4,1111122 
DISL,ioos:station:DISL:MHPA:1,2012-07-03T12:30:00Z,30.6671,-87.9365,26.6,1111122 
DISL,ioos:station:DISL:MHPA:1,2012-07-03T13:00:00Z,30.6671,-87.9365,27.12,1111122 
DISL,ioos:station:DISL:MHPA:1,2012-07-03T13:30:00Z,30.6671,-87.9365,27.71,1111122 
DISL,ioos:station:DISL:MHPA:1,2012-07-03T14:00:00Z,30.6671,-87.9365,28.57,1111122 
DISL,ioos:station:DISL:MHPA:1,2012-07-03T14:30:00Z,30.6671,-87.9365,29.5,1111122 
DISL,ioos:station:DISL:MHPA:1,2012-07-03T15:00:00Z,30.6671,-87.9365,30.77,1111122 
DISL,ioos:station:DISL:MHPA:1,2012-07-03T15:30:00Z,30.6671,-87.9365,30.39,1111122 
DISL,ioos:station:DISL:MHPA:1,2012-07-03T16:00:00Z,30.6671,-87.9365,30.57,1111122 
DISL,ioos:station:DISL:MHPA:1,2012-07-03T16:30:00Z,30.6671,-87.9365,30.73,1111122 
DISL,ioos:station:DISL:MHPA:1,2012-07-03T17:00:00Z,30.6671,-87.9365,31.65,1111122 
DISL,ioos:station:DISL:MHPA:1,2012-07-03T17:30:00Z,30.6671,-87.9365,31.98,1111122 
DISL,ioos:station:DISL:MHPA:1,2012-07-03T18:00:00Z,30.6671,-87.9365,32.32,1111122 
DISL,ioos:station:DISL:MHPA:1,2012-07-03T18:30:00Z,30.6671,-87.9365,32.64,1111122 
DISL,ioos:station:DISL:MHPA:1,2012-07-03T19:00:00Z,30.6671,-87.9365,32.77,1111122 
DISL,ioos:station:DISL:MHPA:1,2012-07-03T19:30:00Z,30.6671,-87.9365,32.71,1111122 
DISL,ioos:station:DISL:MHPA:1,2012-07-03T20:00:00Z,30.6671,-87.9365,33.19,1111122 
DISL,ioos:station:DISL:MHPA:1,2012-07-03T20:30:00Z,30.6671,-87.9365,31.9,1111122 
DISL,ioos:station:DISL:MHPA:1,2012-07-03T21:00:00Z,30.6671,-87.9365,30.56,1111122 
DISL,ioos:station:DISL:MHPA:1,2012-07-03T21:30:00Z,30.6671,-87.9365,25.77,1111122 
DISL,ioos:station:DISL:MHPA:1,2012-07-03T22:00:00Z,30.6671,-87.9365,24.85,1111122 
DISL,ioos:station:DISL:MHPA:1,2012-07-03T22:30:00Z,30.6671,-87.9365,25.64,1111122 
DISL,ioos:station:DISL:MHPA:1,2012-07-03T23:00:00Z,30.6671,-87.9365,25.64,1111122 
DISL,ioos:station:DISL:MHPA:1,2012-07-03T23:30:00Z,30.6671,-87.9365,25.14,1111122 
DISL,ioos:station:DISL:MHPA:1,2012-07-04T00:00:00Z,30.6671,-87.9365,25.4,1111122 
DISL,ioos:station:DISL:MHPA:1,2012-07-04T00:30:00Z,30.6671,-87.9365,26.66,1111122 
DISL,ioos:station:DISL:MHPA:1,2012-07-04T01:00:00Z,30.6671,-87.9365,26.78,1111122 
DISL,ioos:station:DISL:MHPA:1,2012-07-04T01:30:00Z,30.6671,-87.9365,27.52,1111122 
DISL,ioos:station:DISL:MHPA:1,2012-07-04T02:00:00Z,30.6671,-87.9365,26.77,1111122 
DISL,ioos:station:DISL:MHPA:1,2012-07-04T02:30:00Z,30.6671,-87.9365,26.44,1111122 
DISL,ioos:station:DISL:MHPA:1,2012-07-04T03:00:00Z,30.6671,-87.9365,25.26,1111122 
DISL,ioos:station:DISL:MHPA:1,2012-07-04T03:30:00Z,30.6671,-87.9365,25.07,1111122 
DISL,ioos:station:DISL:MHPA:1,2012-07-04T04:00:00Z,30.6671,-87.9365,24.82,1111122 
DISL,ioos:station:DISL:MHPA:1,2012-07-04T04:30:00Z,30.6671,-87.9365,25.06,1111122 
DISL,ioos:station:DISL:MHPA:1,2012-07-04T05:00:00Z,30.6671,-87.9365,24.81,1111122 
DISL,ioos:station:DISL:MHPA:1,2012-07-04T05:30:00Z,30.6671,-87.9365,24.73,1111122 
DISL,ioos:station:DISL:MHPA:1,2012-07-04T06:00:00Z,30.6671,-87.9365,24.8,1111122 
DISL,ioos:station:DISL:MHPA:1,2012-07-04T06:30:00Z,30.6671,-87.9365,24.9,1111122 
DISL,ioos:station:DISL:MHPA:1,2012-07-04T07:00:00Z,30.6671,-87.9365,24.72,1111122 
DISL,ioos:station:DISL:MHPA:1,2012-07-04T07:30:00Z,30.6671,-87.9365,24.59,1111122 
DISL,ioos:station:DISL:MHPA:1,2012-07-04T08:00:00Z,30.6671,-87.9365,24.8,1111122 
DISL,ioos:station:DISL:MHPA:1,2012-07-04T08:30:00Z,30.6671,-87.9365,24.94,1111122 
DISL,ioos:station:DISL:MHPA:1,2012-07-04T09:00:00Z,30.6671,-87.9365,24.99,1111122 
DISL,ioos:station:DISL:MHPA:1,2012-07-04T09:30:00Z,30.6671,-87.9365,24.95,1111122 
DISL,ioos:station:DISL:MHPA:1,2012-07-04T10:00:00Z,30.6671,-87.9365,24.85,1111122 
DISL,ioos:station:DISL:MHPA:1,2012-07-04T10:30:00Z,30.6671,-87.9365,24.84,1111122 
DISL,ioos:station:DISL:MHPA:1,2012-07-04T11:00:00Z,30.6671,-87.9365,24.11,1111122 
DISL,ioos:station:DISL:MHPA:1,2012-07-04T11:30:00Z,30.6671,-87.9365,24.73,1111122 
DISL,ioos:station:DISL:MHPA:1,2012-07-04T12:00:00Z,30.6671,-87.9365,25.68,1111122 
DISL,ioos:station:DISL:MHPA:1,2012-07-04T12:30:00Z,30.6671,-87.9365,26.63,1111122 
DISL,ioos:station:DISL:MHPA:1,2012-07-04T13:00:00Z,30.6671,-87.9365,28.35,1111122 
DISL,ioos:station:DISL:MHPA:1,2012-07-04T13:30:00Z,30.6671,-87.9365,28.79,1111122 
DISL,ioos:station:DISL:MHPA:1,2012-07-04T14:00:00Z,30.6671,-87.9365,28.87,1111122 
DISL,ioos:station:DISL:MHPA:1,2012-07-04T14:30:00Z,30.6671,-87.9365,29.5,1111122 
DISL,ioos:station:DISL:MHPA:1,2012-07-04T15:00:00Z,30.6671,-87.9365,29.86,1111122 
DISL,ioos:station:DISL:MHPA:1,2012-07-04T15:30:00Z,30.6671,-87.9365,29.27,1111122 
DISL,ioos:station:DISL:MHPA:1,2012-07-04T16:00:00Z,30.6671,-87.9365,29.46,1111122 
DISL,ioos:station:DISL:MHPA:1,2012-07-04T16:30:00Z,30.6671,-87.9365,29.76,1111122 
DISL,ioos:station:DISL:MHPA:1,2012-07-04T17:00:00Z,30.6671,-87.9365,30.19,1111122 
DISL,ioos:station:DISL:MHPA:1,2012-07-04T17:30:00Z,30.6671,-87.9365,30.47,1111122 
DISL,ioos:station:DISL:MHPA:1,2012-07-04T18:00:00Z,30.6671,-87.9365,28.27,1111122 
DISL,ioos:station:DISL:MHPA:1,2012-07-04T18:30:00Z,30.6671,-87.9365,25.65,1111122 
DISL,ioos:station:DISL:MHPA:1,2012-07-04T19:00:00Z,30.6671,-87.9365,22.84,1111122 
DISL,ioos:station:DISL:MHPA:1,2012-07-04T19:30:00Z,30.6671,-87.9365,22.72,1111122 
DISL,ioos:station:DISL:MHPA:1,2012-07-04T20:00:00Z,30.6671,-87.9365,22.47,1111122 
DISL,ioos:station:DISL:MHPA:1,2012-07-04T20:30:00Z,30.6671,-87.9365,23.11,1111122 
DISL,ioos:station:DISL:MHPA:1,2012-07-04T21:00:00Z,30.6671,-87.9365,23.9,1111122 
DISL,ioos:station:DISL:MHPA:1,2012-07-04T21:30:00Z,30.6671,-87.9365,23.07,1111122 
DISL,ioos:station:DISL:MHPA:1,2012-07-04T22:00:00Z,30.6671,-87.9365,23.65,1111122 
DISL,ioos:station:DISL:MHPA:1,2012-07-04T22:30:00Z,30.6671,-87.9365,24.11,1111122 
DISL,ioos:station:DISL:MHPA:1,2012-07-04T23:00:00Z,30.6671,-87.9365,24.33,1111122 
DISL,ioos:station:DISL:MHPA:1,2012-07-04T23:30:00Z,30.6671,-87.9365,24.59,1111122 
DISL,ioos:station:DISL:MHPA:1,2012-07-05T00:00:00Z,30.6671,-87.9365,24.63,1111122 
DISL,ioos:station:DISL:MHPA:1,2012-07-05T00:30:00Z,30.6671,-87.9365,24.95,1111122 
DISL,ioos:station:DISL:MHPA:1,2012-07-05T01:00:00Z,30.6671,-87.9365,24.99,1111122 
DISL,ioos:station:DISL:MHPA:1,2012-07-05T01:30:00Z,30.6671,-87.9365,24.66,1111122 
DISL,ioos:station:DISL:MHPA:1,2012-07-05T02:00:00Z,30.6671,-87.9365,24.84,1111122 
DISL,ioos:station:DISL:MHPA:1,2012-07-05T02:30:00Z,30.6671,-87.9365,24.82,1111122 
DISL,ioos:station:DISL:MHPA:1,2012-07-05T03:00:00Z,30.6671,-87.9365,24.56,1111122 
DISL,ioos:station:DISL:MHPA:1,2012-07-05T03:30:00Z,30.6671,-87.9365,24.62,1111122 
DISL,ioos:station:DISL:MHPA:1,2012-07-05T04:00:00Z,30.6671,-87.9365,24.57,1111122 
DISL,ioos:station:DISL:MHPA:1,2012-07-05T04:30:00Z,30.6671,-87.9365,24.7,1111122 
DISL,ioos:station:DISL:MHPA:1,2012-07-05T05:00:00Z,30.6671,-87.9365,24.67,1111122 
DISL,ioos:station:DISL:MHPA:1,2012-07-05T05:30:00Z,30.6671,-87.9365,24.33,1111122 
DISL,ioos:station:DISL:MHPA:1,2012-07-05T06:00:00Z,30.6671,-87.9365,24.2,1111122 
DISL,ioos:station:DISL:MHPA:1,2012-07-05T06:30:00Z,30.6671,-87.9365,24.21,1111122 
DISL,ioos:station:DISL:MHPA:1,2012-07-05T07:00:00Z,30.6671,-87.9365,24.3,1111122 
DISL,ioos:station:DISL:MHPA:1,2012-07-05T07:30:00Z,30.6671,-87.9365,24.29,1111122 
DISL,ioos:station:DISL:MHPA:1,2012-07-05T08:00:00Z,30.6671,-87.9365,24.3,1111122 
DISL,ioos:station:DISL:MHPA:1,2012-07-05T08:30:00Z,30.6671,-87.9365,24.07,1111122 
DISL,ioos:station:DISL:MHPA:1,2012-07-05T09:00:00Z,30.6671,-87.9365,24.33,1111122 
DISL,ioos:station:DISL:MHPA:1,2012-07-05T09:30:00Z,30.6671,-87.9365,24.41,1111122 
DISL,ioos:station:DISL:MHPA:1,2012-07-05T10:00:00Z,30.6671,-87.9365,24.34,1111122 
DISL,ioos:station:DISL:MHPA:1,2012-07-05T10:30:00Z,30.6671,-87.9365,24.35,1111122 
DISL,ioos:station:DISL:MHPA:1,2012-07-05T11:00:00Z,30.6671,-87.9365,24.14,1111122 
DISL,ioos:station:DISL:MHPA:1,2012-07-05T11:30:00Z,30.6671,-87.9365,24.53,1111122 
DISL,ioos:station:DISL:MHPA:1,2012-07-05T12:00:00Z,30.6671,-87.9365,25.63,1111122 
DISL,ioos:station:DISL:MHPA:1,2012-07-05T12:30:00Z,30.6671,-87.9365,25.62,1111122 
DISL,ioos:station:DISL:MHPA:1,2012-07-05T13:00:00Z,30.6671,-87.9365,26.36,1111122 
DISL,ioos:station:DISL:MHPA:1,2012-07-05T13:30:00Z,30.6671,-87.9365,26.43,1111122 
DISL,ioos:station:DISL:MHPA:1,2012-07-05T14:00:00Z,30.6671,-87.9365,26.32,1111122 
DISL,ioos:station:DISL:MHPA:1,2012-07-05T14:30:00Z,30.6671,-87.9365,26.75,1111122 
DISL,ioos:station:DISL:MHPA:1,2012-07-05T15:00:00Z,30.6671,-87.9365,27.51,1111122 
DISL,ioos:station:DISL:MHPA:1,2012-07-05T15:30:00Z,30.6671,-87.9365,27.79,1111122 
DISL,ioos:station:DISL:MHPA:1,2012-07-05T16:00:00Z,30.6671,-87.9365,27.73,1111122 
DISL,ioos:station:DISL:MHPA:1,2012-07-05T16:30:00Z,30.6671,-87.9365,28.02,1111122 
DISL,ioos:station:DISL:MHPA:1,2012-07-05T17:00:00Z,30.6671,-87.9365,28.47,1111122 
DISL,ioos:station:DISL:MHPA:1,2012-07-05T17:30:00Z,30.6671,-87.9365,28.93,1111122 
DISL,ioos:station:DISL:MHPA:1,2012-07-05T18:00:00Z,30.6671,-87.9365,29.21,1111122 
DISL,ioos:station:DISL:MHPA:1,2012-07-05T18:30:00Z,30.6671,-87.9365,30.01,1111122 
DISL,ioos:station:DISL:MHPA:1,2012-07-05T19:00:00Z,30.6671,-87.9365,30.83,1111122 
DISL,ioos:station:DISL:MHPA:1,2012-07-05T19:30:00Z,30.6671,-87.9365,31.31,1111122 
DISL,ioos:station:DISL:MHPA:1,2012-07-05T20:00:00Z,30.6671,-87.9365,31.66,1111122 
DISL,ioos:station:DISL:MHPA:1,2012-07-05T20:30:00Z,30.6671,-87.9365,32.08,1111122 
DISL,ioos:station:DISL:MHPA:1,2012-07-05T21:00:00Z,30.6671,-87.9365,31.35,1111122 
DISL,ioos:station:DISL:MHPA:1,2012-07-05T21:30:00Z,30.6671,-87.9365,31.14,1111122 
DISL,ioos:station:DISL:MHPA:1,2012-07-05T22:00:00Z,30.6671,-87.9365,31.14,1111122 
DISL,ioos:station:DISL:MHPA:1,2012-07-05T22:30:00Z,30.6671,-87.9365,31.41,1111122 
DISL,ioos:station:DISL:MHPA:1,2012-07-05T23:00:00Z,30.6671,-87.9365,31.19,1111122 
DISL,ioos:station:DISL:MHPA:1,2012-07-05T23:30:00Z,30.6671,-87.9365,31.43,1111122 
DISL,ioos:station:DISL:MHPA:1,2012-07-06T00:00:00Z,30.6671,-87.9365,31.2,1111122 
DISL,ioos:station:DISL:MHPA:1,2012-07-06T00:30:00Z,30.6671,-87.9365,30.86,1111122 
DISL,ioos:station:DISL:MHPA:1,2012-07-06T01:00:00Z,30.6671,-87.9365,30.65,1111122 
DISL,ioos:station:DISL:MHPA:1,2012-07-06T01:30:00Z,30.6671,-87.9365,30.14,1111122 
DISL,ioos:station:DISL:MHPA:1,2012-07-06T02:00:00Z,30.6671,-87.9365,30.05,1111122 
DISL,ioos:station:DISL:MHPA:1,2012-07-06T02:30:00Z,30.6671,-87.9365,29.93,1111122 
DISL,ioos:station:DISL:MHPA:1,2012-07-06T03:00:00Z,30.6671,-87.9365,29.67,1111122 
DISL,ioos:station:DISL:MHPA:1,2012-07-06T03:30:00Z,30.6671,-87.9365,29.55,1111122 
DISL,ioos:station:DISL:MHPA:1,2012-07-06T04:00:00Z,30.6671,-87.9365,29.4,1111122 
DISL,ioos:station:DISL:MHPA:1,2012-07-06T04:30:00Z,30.6671,-87.9365,29.38,1111122 
DISL,ioos:station:DISL:MHPA:1,2012-07-06T05:00:00Z,30.6671,-87.9365,29.28,1111122 
DISL,ioos:station:DISL:MHPA:1,2012-07-06T05:30:00Z,30.6671,-87.9365,29.2,1111122 
DISL,ioos:station:DISL:MHPA:1,2012-07-06T06:00:00Z,30.6671,-87.9365,29.08,1111122 
DISL,ioos:station:DISL:MHPA:1,2012-07-06T06:30:00Z,30.6671,-87.9365,29.09,1111122 
DISL,ioos:station:DISL:MHPA:1,2012-07-06T07:00:00Z,30.6671,-87.9365,28.99,1111122 
DISL,ioos:station:DISL:MHPA:1,2012-07-06T07:30:00Z,30.6671,-87.9365,28.92,1111122 
DISL,ioos:station:DISL:MHPA:1,2012-07-06T08:00:00Z,30.6671,-87.9365,28.77,1111122 
DISL,ioos:station:DISL:MHPA:1,2012-07-06T08:30:00Z,30.6671,-87.9365,28.53,1111122 
DISL,ioos:station:DISL:MHPA:1,2012-07-06T09:00:00Z,30.6671,-87.9365,28.33,1111122 
DISL,ioos:station:DISL:MHPA:1,2012-07-06T09:30:00Z,30.6671,-87.9365,27.38,1111122 
DISL,ioos:station:DISL:MHPA:1,2012-07-06T10:00:00Z,30.6671,-87.9365,27.1,1111122 
DISL,ioos:station:DISL:MHPA:1,2012-07-06T10:30:00Z,30.6671,-87.9365,26.95,1111122 
DISL,ioos:station:DISL:MHPA:1,2012-07-06T11:00:00Z,30.6671,-87.9365,26.73,1111122 
DISL,ioos:station:DISL:MHPA:1,2012-07-06T11:30:00Z,30.6671,-87.9365,26.52,1111122 
DISL,ioos:station:DISL:MHPA:1,2012-07-06T12:00:00Z,30.6671,-87.9365,26.12,1111122 
DISL,ioos:station:DISL:MHPA:1,2012-07-06T12:30:00Z,30.6671,-87.9365,25.83,1111122 
DISL,ioos:station:DISL:MHPA:1,2012-07-06T13:00:00Z,30.6671,-87.9365,25.74,1111122 
DISL,ioos:station:DISL:MHPA:1,2012-07-06T13:30:00Z,30.6671,-87.9365,25.88,1111122 
DISL,ioos:station:DISL:MHPA:1,2012-07-06T14:00:00Z,30.6671,-87.9365,25.27,1111122 
DISL,ioos:station:DISL:MHPA:1,2012-07-06T14:30:00Z,30.6671,-87.9365,24.89,1111122 
DISL,ioos:station:DISL:MHPA:1,2012-07-06T15:00:00Z,30.6671,-87.9365,25.1,1111122 
DISL,ioos:station:DISL:MHPA:1,2012-07-06T15:30:00Z,30.6671,-87.9365,25.12,1111122 
DISL,ioos:station:DISL:MHPA:1,2012-07-06T16:00:00Z,30.6671,-87.9365,25.29,1111122 
DISL,ioos:station:DISL:MHPA:1,2012-07-06T16:30:00Z,30.6671,-87.9365,25.47,1111122 
DISL,ioos:station:DISL:MHPA:1,2012-07-06T17:00:00Z,30.6671,-87.9365,25.36,1111122 
DISL,ioos:station:DISL:MHPA:1,2012-07-06T17:30:00Z,30.6671,-87.9365,25.25,1111122 
DISL,ioos:station:DISL:MHPA:1,2012-07-06T18:00:00Z,30.6671,-87.9365,25.44,1111122 
DISL,ioos:station:DISL:MHPA:1,2012-07-06T18:30:00Z,30.6671,-87.9365,26.04,1111122 
DISL,ioos:station:DISL:MHPA:1,2012-07-06T19:00:00Z,30.6671,-87.9365,26.96,1111122 
DISL,ioos:station:DISL:MHPA:1,2012-07-06T19:30:00Z,30.6671,-87.9365,27.15,1111122 
DISL,ioos:station:DISL:MHPA:1,2012-07-06T20:00:00Z,30.6671,-87.9365,28.06,1111122 
DISL,ioos:station:DISL:MHPA:1,2012-07-06T20:30:00Z,30.6671,-87.9365,29.34,1111122 
DISL,ioos:station:DISL:MHPA:1,2012-07-06T21:00:00Z,30.6671,-87.9365,29.0,1111122 
DISL,ioos:station:DISL:MHPA:1,2012-07-06T21:30:00Z,30.6671,-87.9365,28.53,1111122 
DISL,ioos:station:DISL:MHPA:1,2012-07-06T22:00:00Z,30.6671,-87.9365,29.44,1111122 
DISL,ioos:station:DISL:MHPA:1,2012-07-06T22:30:00Z,30.6671,-87.9365,29.9,1111122 
DISL,ioos:station:DISL:MHPA:1,2012-07-06T23:00:00Z,30.6671,-87.9365,30.51,1111122 
DISL,ioos:station:DISL:MHPA:1,2012-07-06T23:30:00Z,30.6671,-87.9365,30.59,1111122 